Wind_Speed
25 25 22 14 10 11 14 16 12 15 13 15 15 11 12 12 14 13 9 10 6 4 6 14 14 11 10 9 5 6 2 2 1 4 7 7 5 5 4 5 8 10 11 12
29 30 24 18 13 11 13 18 21 17 18 16 18 16 12 18 17 14 13 11 10 7 9 9 13 15 13 9 3 10 5 3 4 5 7 6 4 2 5 8 11 12 14 15
33 28 30 21 13 12 11 16 23 16 15 18 17 21 12 12 18 12 14 12 13 11 10 7 11 11 11 11 8 9 9 9 6 6 6 4 1 3 7 10 10 12 14 15
28 30 18 15 13 9 13 20 13 14 19 9 8 8 16 10 14 19 15 16 17 15 13 13 11 12 13 13 9 15 14 11 8 6 6 3 3 5 8 9 10 14 17 17
18 16 26 20 13 8 11 14 10 11 18 14 11 8 8 10 14 17 18 16 13 16 14 13 12 13 16 16 16 18 18 15 12 8 4 3 4 7 9 10 12 15 19 19
26 18 18 24 15 12 11 14 11 8 10 7 10 6 17 10 2 7 15 17 16 15 19 17 14 13 20 21 20 19 18 15 12 9 3 3 5 8 11 12 12 15 18 18
21 25 21 20 15 15 10 9 1 2 1 8 7 8 22 9 7 8 7 12 17 21 21 20 20 19 20 21 23 22 21 17 13 9 6 4 6 7 11 13 14 16 19 17
13 8 17 23 21 12 6 8 6 6 4 6 6 7 18 20 9 5 5 6 17 18 22 19 15 17 18 18 20 20 19 17 15 12 9 7 9 10 13 13 14 16 17 14
11 9 13 12 15 11 9 10 11 12 5 3 8 14 19 6 3 1 3 4 7 11 13 14 16 15 17 19 21 23 21 18 16 13 11 9 11 11 15 14 15 15 14 11
15 8 7 9 10 11 10 12 7 9 4 4 7 11 18 15 5 7 1 4 6 8 5 7 14 18 15 18 21 22 22 19 18 15 13 12 13 14 15 14 15 13 11 8
23 22 15 7 6 4 3 6 6 5 3 7 2 10 16 7 3 7 7 3 1 3 5 9 11 14 17 19 20 22 20 17 18 15 14 15 13 14 14 15 14 11 9 6
14 14 27 24 22 16 13 16 6 7 4 5 4 17 14 9 9 6 10 10 11 8 10 10 12 13 14 15 21 19 18 14 14 16 15 14 13 16 15 14 13 11 10 8
10 14 21 19 18 15 12 8 2 2 1 8 4 14 14 7 4 8 5 6 11 7 9 13 13 11 13 16 14 18 15 13 14 15 16 15 13 14 15 14 13 12 11 9
4 8 12 17 9 9 12 6 1 2 2 2 6 8 10 14 11 11 7 11 10 9 8 7 8 11 11 10 11 15 16 14 14 15 17 16 14 15 16 16 15 13 11 10
2 3 6 6 10 9 7 4 2 4 4 5 8 9 15 12 17 19 17 16 18 15 12 13 11 11 11 11 12 14 16 17 17 16 18 18 18 20 18 18 17 15 12 10
3 2 9 9 8 5 3 1 4 6 8 11 12 14 14 19 13 16 24 18 13 19 17 15 16 18 16 15 15 15 18 18 19 20 20 21 22 22 21 20 20 17 14 12
4 4 4 8 6 7 4 2 4 6 8 11 14 15 14 13 17 17 22 20 22 18 22 23 18 16 19 20 20 16 18 19 20 21 22 25 25 24 20 21 22 18 16 13
9 7 7 4 4 4 6 5 3 8 12 12 11 14 19 17 14 23 22 24 24 22 19 21 16 13 14 19 22 21 21 20 22 23 24 26 27 23 21 21 22 20 18 15
11 13 7 3 1 4 14 7 5 8 11 14 13 15 18 19 17 17 23 29 26 23 22 22 20 14 12 12 12 11 16 19 21 21 22 28 28 24 20 20 22 22 22 18
8 12 15 10 4 7 8 8 6 8 16 15 15 15 16 15 12 12 20 30 27 26 25 25 24 20 17 16 14 13 13 14 15 16 22 25 25 12 15 24 23 25 27 22
8 6 6 10 7 7 9 8 6 7 11 10 13 14 16 17 17 17 18 24 28 30 29 30 26 23 23 24 25 25 23 21 21 21 19 24 26 27 29 27 23 31 29 21
9 8 9 6 5 6 11 11 9 6 8 11 17 16 14 18 19 17 16 18 9 13 11 11 18 21 23 22 23 26 27 26 23 17 15 15 20 18 19 24 33 25 24 16
9 11 6 9 6 8 7 10 11 11 12 13 14 15 16 17 17 16 18 9 6 2 5 7 10 16 21 26 29 30 29 31 11 14 14 13 14 11 15 25 28 29 26 29
13 10 9 4 2 6 11 15 19 18 19 20 17 16 15 15 14 18 18 20 8 9 12 7 9 12 17 21 23 24 24 29 44 31 13 17 11 12 13 18 18 26 22 21
11 10 11 13 8 8 6 8 12 14 16 24 19 18 15 15 15 9 7 15 26 33 39 31 29 27 19 21 22 23 26 30 40 18 16 14 16 13 14 14 16 19 23 24
20 19 19 15 12 17 13 10 12 13 14 18 28 25 19 17 15 16 10 13 22 26 28 42 31 21 16 15 18 24 22 19 13 13 13 15 16 18 17 13 17 19 20 15
Wind_Direction
213 228 242 238 259 301 315 320 314 283 281 278 314 285 292 272 285 247 229 230 237 252 150 165 165 176 193 196 198 170 215 336 114 152 149 151 138 96 55 5 345 338 329 328
218 234 237 244 265 287 312 316 313 301 266 269 281 275 259 261 263 258 235 219 206 207 204 200 175 185 188 198 203 185 187 190 170 162 174 172 146 47 11 353 346 344 337 335
223 231 240 240 249 278 301 305 319 280 275 272 281 303 308 268 232 234 244 230 220 207 223 215 200 187 181 194 203 203 181 162 158 178 195 211 235 338 345 342 341 346 346 340
223 224 224 221 244 284 305 328 298 254 258 270 295 290 321 276 243 242 247 238 209 184 196 214 206 198 176 158 175 189 184 170 166 181 188 218 268 313 319 333 328 349 346 342
208 226 225 239 243 272 306 336 322 254 247 272 291 277 316 267 244 244 241 238 211 205 202 195 189 175 161 166 177 187 178 178 175 177 182 223 272 290 311 308 330 343 343 339
224 226 220 225 239 248 287 303 292 260 241 293 273 264 313 315 273 239 243 242 224 198 191 191 184 178 175 173 179 191 187 185 187 175 168 260 260 288 307 307 326 336 334 335
233 230 226 226 247 240 275 261 82 347 243 230 259 284 308 332 274 305 287 248 228 180 182 179 182 179 182 184 184 189 191 185 190 171 192 246 277 298 308 309 319 328 328 329
228 237 232 224 235 237 260 244 198 203 208 267 275 263 310 313 307 313 293 172 176 172 185 185 188 188 190 189 191 191 191 183 188 180 185 219 264 290 302 307 318 323 322 321
220 243 223 209 222 221 230 226 265 240 219 288 271 282 304 308 272 243 25 104 185 192 197 200 191 188 195 196 196 196 192 190 195 173 195 216 256 285 293 304 314 310 311 311
236 255 257 226 226 221 232 265 243 218 137 226 271 282 294 327 267 246 202 137 135 174 174 181 194 204 204 202 195 188 193 198 204 184 216 226 252 273 286 300 307 301 299 306
235 245 247 220 212 228 214 290 227 202 204 161 231 272 295 323 231 221 189 157 178 192 182 171 172 197 206 207 196 197 197 199 206 195 206 230 245 266 279 295 291 284 282 276
226 241 251 260 262 274 263 286 230 224 226 212 208 273 288 282 318 303 242 252 257 263 224 203 195 200 206 205 210 207 204 203 191 199 213 226 240 259 274 282 271 271 272 274
227 223 240 259 258 267 260 183 140 191 153 228 182 256 285 276 269 277 262 250 276 243 210 210 208 212 210 217 214 210 212 207 205 207 216 228 239 258 271 267 254 252 255 261
266 228 233 232 248 210 179 180 149 51 115 231 258 292 277 255 240 246 236 240 267 238 220 225 226 228 225 227 227 212 210 218 222 220 222 228 239 253 260 255 242 242 245 249
288 259 198 149 156 177 183 196 278 274 277 266 288 284 299 265 254 252 229 224 240 225 233 232 231 231 222 241 241 234 218 223 233 237 233 233 241 248 254 252 242 243 243 252
5 246 160 142 140 140 130 198 278 280 268 269 277 288 289 272 255 250 226 231 249 232 239 248 238 238 237 231 241 246 237 234 238 244 242 240 243 251 253 245 240 238 237 247
287 339 235 168 151 163 158 102 275 240 250 264 270 282 278 288 236 234 234 245 249 236 238 232 248 249 247 241 247 254 251 248 249 249 247 247 245 249 253 244 240 239 243 253
261 289 296 269 216 196 181 190 261 299 302 298 296 288 276 282 264 238 237 238 252 251 230 224 231 248 248 243 244 248 253 256 258 257 255 252 243 252 248 241 236 239 244 250
260 252 261 243 190 185 186 190 267 304 296 291 286 294 293 288 275 255 249 234 240 227 226 229 234 227 248 254 260 270 270 268 267 266 261 252 253 251 241 236 235 239 247 254
222 229 228 223 195 201 223 210 243 291 270 286 280 283 282 267 228 220 230 230 238 233 231 229 226 225 229 252 267 266 270 279 280 279 261 253 259 351 251 234 226 242 247 250
214 236 233 209 209 223 208 224 211 237 288 286 266 264 260 221 224 210 220 229 241 244 244 241 229 230 254 258 264 271 272 274 279 287 273 283 297 302 277 236 231 235 242 248
242 237 215 208 200 233 211 192 214 245 286 269 250 234 237 245 233 208 208 218 220 252 236 231 221 231 245 259 264 260 260 265 262 279 287 289 297 295 254 226 241 241 244 235
245 242 237 221 202 182 219 251 247 246 231 234 233 249 250 250 244 247 235 200 143 172 227 224 233 242 251 254 253 257 257 260 268 294 292 297 289 284 252 244 257 247 235 247
235 239 230 257 70 257 265 289 287 263 231 220 221 225 234 246 267 270 254 268 300 303 300 248 249 256 257 260 262 270 268 266 280 264 291 295 288 301 286 271 272 241 248 249
234 237 254 287 291 283 304 323 325 315 252 235 230 225 229 240 245 259 266 252 236 276 294 286 278 289 284 271 276 283 290 293 294 304 239 269 276 292 284 261 260 251 243 248
249 258 275 278 287 278 276 285 308 315 311 248 233 229 236 247 246 238 240 256 246 247 278 270 287 302 305 281 273 277 284 302 316 187 253 225 254 280 290 267 265 251 252 250
Height
3164 3165 3165 3170 3170 3170 3169 3167 3165 3161 3161 3158 3156 3157 3157 3156 3157 3158 3159 3161 3163 3163 3166 3169 3171 3175 3178 3181 3185 3187 3189 3191 3191 3192 3193 3194 3195 3195 3194 3195 3194 3193 3191 3188
3164 3160 3165 3168 3169 3169 3168 3165 3163 3159 3159 3158 3156 3154 3155 3154 3153 3154 3157 3157 3159 3163 3165 3166 3169 3172 3176 3179 3183 3185 3187 3189 3190 3191 3192 3193 3194 3194 3194 3193 3192 3191 3189 3187
3159 3161 3164 3167 3168 3167 3167 3164 3160 3159 3158 3156 3156 3152 3149 3148 3150 3151 3152 3155 3158 3160 3164 3166 3167 3170 3173 3176 3180 3183 3186 3187 3189 3190 3192 3193 3193 3193 3193 3192 3192 3191 3189 3186
3157 3159 3161 3164 3165 3166 3163 3162 3158 3157 3159 3158 3157 3152 3147 3144 3144 3146 3150 3152 3155 3157 3161 3164 3166 3168 3171 3174 3178 3181 3183 3185 3187 3189 3190 3191 3192 3192 3192 3193 3192 3189 3187 3186
3155 3156 3159 3160 3162 3163 3163 3160 3159 3158 3160 3158 3156 3156 3146 3145 3144 3145 3148 3150 3152 3155 3159 3162 3165 3167 3169 3172 3175 3179 3181 3183 3185 3187 3188 3188 3190 3191 3192 3190 3189 3189 3187 3184
3151 3153 3154 3157 3159 3161 3161 3161 3160 3161 3162 3161 3155 3155 3142 3143 3145 3145 3145 3146 3148 3152 3156 3160 3163 3166 3168 3170 3173 3177 3179 3182 3184 3185 3185 3187 3189 3190 3190 3189 3188 3186 3185 3183
3148 3148 3151 3153 3156 3158 3159 3160 3162 3165 3164 3159 3154 3153 3142 3143 3142 3142 3143 3143 3146 3150 3154 3158 3160 3163 3166 3167 3170 3173 3177 3179 3182 3182 3185 3187 3188 3189 3189 3188 3186 3185 3183 3182
3145 3146 3146 3148 3151 3155 3156 3157 3158 3164 3163 3154 3151 3148 3143 3141 3141 3141 3140 3141 3144 3148 3152 3155 3158 3161 3164 3167 3169 3172 3174 3177 3180 3181 3184 3186 3187 3187 3187 3186 3185 3183 3182 3181
3141 3142 3143 3145 3148 3152 3152 3153 3155 3154 3154 3153 3149 3146 3143 3140 3139 3140 3141 3141 3144 3147 3151 3153 3156 3159 3162 3164 3167 3170 3173 3176 3178 3179 3182 3182 3184 3185 3185 3184 3182 3181 3180 3179
3139 3140 3140 3143 3145 3147 3148 3150 3150 3150 3154 3154 3146 3144 3142 3141 3139 3139 3140 3142 3143 3146 3148 3150 3152 3156 3159 3163 3166 3168 3172 3174 3176 3177 3179 3179 3181 3183 3183 3182 3180 3179 3178 3178
3136 3139 3139 3141 3142 3144 3145 3145 3145 3146 3146 3147 3149 3142 3140 3140 3139 3138 3139 3141 3142 3144 3146 3148 3151 3155 3158 3161 3163 3165 3167 3170 3172 3174 3176 3176 3177 3179 3178 3178 3178 3177 3176 3176
3132 3134 3134 3137 3139 3139 3141 3142 3142 3142 3143 3143 3144 3141 3139 3140 3141 3139 3139 3140 3141 3143 3144 3147 3150 3153 3155 3158 3160 3162 3164 3167 3168 3170 3171 3172 3173 3175 3176 3175 3175 3174 3173 3173
3128 3129 3131 3133 3137 3136 3137 3139 3139 3138 3139 3139 3141 3140 3139 3139 3140 3141 3142 3141 3141 3143 3144 3145 3148 3150 3153 3155 3157 3159 3161 3163 3164 3166 3168 3169 3169 3170 3171 3171 3171 3170 3170 3171
3126 3127 3127 3129 3131 3131 3134 3135 3136 3137 3137 3139 3138 3136 3137 3137 3136 3138 3140 3142 3143 3142 3143 3145 3147 3148 3150 3152 3154 3156 3157 3159 3161 3162 3163 3164 3164 3165 3166 3166 3167 3167 3166 3167
3126 3125 3125 3125 3127 3129 3130 3132 3133 3135 3136 3136 3136 3134 3133 3133 3134 3135 3136 3137 3139 3141 3142 3144 3145 3147 3147 3149 3150 3152 3153 3155 3157 3157 3157 3158 3159 3161 3161 3162 3163 3162 3162 3162
3126 3126 3125 3125 3126 3128 3130 3131 3131 3132 3132 3132 3132 3131 3131 3129 3130 3131 3131 3133 3134 3137 3140 3141 3143 3144 3144 3145 3146 3147 3149 3150 3151 3151 3151 3152 3153 3155 3156 3158 3159 3159 3158 3159
3125 3125 3125 3124 3124 3125 3128 3127 3128 3129 3129 3129 3128 3129 3127 3126 3126 3127 3128 3130 3131 3133 3134 3136 3140 3141 3141 3142 3142 3143 3144 3144 3144 3144 3146 3148 3150 3151 3153 3155 3156 3157 3156 3155
3122 3123 3124 3123 3122 3124 3123 3124 3125 3127 3127 3125 3124 3124 3123 3122 3123 3122 3124 3125 3126 3128 3130 3132 3135 3137 3137 3137 3137 3138 3138 3138 3138 3140 3142 3142 3144 3146 3148 3150 3153 3155 3154 3152
3120 3119 3121 3121 3121 3122 3121 3122 3123 3124 3125 3123 3121 3120 3118 3118 3118 3118 3118 3120 3122 3124 3127 3129 3131 3132 3134 3134 3135 3135 3135 3135 3136 3136 3137 3136 3137 3136 3139 3143 3147 3149 3149 3147
3115 3115 3117 3118 3118 3119 3118 3119 3121 3120 3120 3120 3119 3117 3116 3115 3113 3113 3113 3116 3118 3119 3121 3124 3125 3127 3129 3130 3131 3131 3131 3131 3130 3131 3131 3129 3126 3099 3131 3136 3140 3142 3142 3141
3112 3112 3112 3112 3113 3114 3115 3116 3117 3117 3120 3116 3116 3115 3114 3112 3112 3110 3111 3112 3115 3115 3115 3118 3121 3123 3124 3125 3126 3127 3127 3127 3124 3123 3126 3125 3125 3122 3123 3126 3130 3131 3134 3136
3109 3110 3110 3111 3111 3113 3111 3112 3114 3114 3113 3113 3113 3112 3112 3111 3110 3110 3109 3109 3111 3113 3111 3113 3113 3115 3116 3116 3117 3117 3116 3117 3118 3119 3121 3121 3120 3115 3116 3121 3125 3127 3129 3127
3107 3107 3107 3109 3109 3108 3109 3109 3109 3109 3110 3110 3111 3111 3111 3109 3109 3109 3111 3110 3109 3110 3109 3109 3109 3109 3110 3111 3111 3108 3112 3098 3085 3115 3121 3116 3111 3112 3116 3119 3121 3121 3121 3125
3102 3103 3103 3105 3105 3105 3106 3105 3104 3104 3105 3105 3106 3105 3106 3107 3106 3105 3107 3111 3107 3106 3107 3106 3106 3106 3107 3108 3107 3104 3108 3103 3094 3094 3111 3113 3112 3110 3114 3117 3117 3116 3119 3122
3099 3100 3100 3101 3103 3103 3103 3102 3100 3099 3100 3102 3103 3103 3102 3102 3101 3100 3100 3099 3101 3103 3100 3101 3100 3101 3104 3105 3104 3103 3101 3102 3099 3097 3107 3108 3108 3106 3107 3109 3112 3115 3117 3120
3095 3097 3098 3098 3100 3099 3100 3099 3098 3096 3095 3095 3097 3098 3098 3097 3097 3097 3097 3098 3097 3099 3099 3097 3096 3097 3098 3100 3100 3097 3098 3097 3094 3095 3100 3102 3102 3105 3106 3105 3107 3110 3113 3115